Wind_Speed
48 47 46 45 44 43 39 36 34 33 32 31 29 27 25 23 22 21 19 18 17 17 17 16 16 16 16 16 16 16 16 16 16 16 16 16 17 17 17 18 18 18 19 19 19 19 19 19 18
49 48 48 48 47 44 40 37 36 36 34 32 31 29 28 26 24 22 21 19 19 18 17 17 17 17 17 16 16 16 16 16 16 16 16 16 17 17 17 17 17 18 18 18 18 19 19 19 19
49 49 49 50 49 44 39 37 38 38 35 34 32 31 30 27 25 23 22 20 20 19 18 17 17 17 16 16 16 16 16 16 15 15 15 16 16 17 17 17 17 17 17 17 17 18 18 19 19
48 50 51 52 49 42 38 39 40 39 37 35 34 32 30 28 26 24 23 21 21 20 19 18 18 17 17 16 16 16 16 16 16 16 16 16 17 17 17 18 18 18 17 17 17 18 18 19 19
49 50 53 53 47 41 40 41 41 40 38 36 35 33 31 29 27 25 23 22 22 21 20 20 19 19 18 17 17 17 17 17 18 18 18 18 19 19 19 19 19 19 19 19 19 19 19 19 19
50 51 53 52 45 41 41 42 41 40 38 37 36 34 32 30 28 26 25 24 23 22 22 22 21 21 20 19 19 19 19 19 20 20 20 20 20 21 21 21 21 20 20 20 20 20 19 19 19
52 51 50 48 43 42 42 43 42 40 39 38 36 35 33 31 29 27 26 25 24 24 24 24 24 23 23 22 21 21 21 21 21 21 21 21 22 22 21 21 21 20 20 20 20 20 20 20 20
52 52 50 47 43 42 42 43 43 42 41 40 38 36 34 32 30 29 28 27 26 26 26 26 26 26 25 24 24 23 23 22 22 22 22 22 22 21 21 21 20 20 20 19 19 19 19 19 19
53 53 51 46 42 42 43 44 44 43 42 41 38 36 34 33 31 30 29 29 28 29 29 29 29 28 28 27 26 26 25 24 23 23 23 22 21 21 20 20 20 20 19 19 19 19 19 19 19
55 53 50 47 44 43 44 45 45 44 43 41 39 37 35 34 32 31 31 31 31 31 31 31 31 30 30 29 28 27 26 25 25 24 23 22 22 21 21 20 20 19 19 19 19 19 19 19 19
56 53 51 48 45 45 45 47 46 45 44 42 40 38 36 34 33 32 32 32 32 32 32 32 32 31 31 31 30 29 28 27 26 25 24 23 23 22 21 21 20 20 19 19 19 19 19 19 20
55 55 53 50 48 47 47 47 47 46 45 43 41 39 37 35 34 33 33 33 33 32 32 32 33 32 32 32 32 30 29 28 28 27 26 25 24 24 23 22 21 20 20 20 20 20 20 20 20
55 55 54 52 51 49 49 48 47 47 46 44 42 40 38 36 35 34 33 33 32 32 32 33 33 33 33 33 32 32 31 31 30 29 28 27 26 25 24 23 23 22 21 21 21 21 21 21 22
54 55 55 53 52 51 50 49 48 47 46 45 43 41 39 37 36 34 33 33 33 32 33 34 34 34 34 34 34 33 33 33 32 31 30 29 29 28 26 25 24 24 24 23 23 23 23 23 24
52 55 55 54 52 51 50 50 49 47 47 46 44 42 40 39 37 35 34 34 33 33 34 34 35 35 35 35 35 35 35 35 34 33 33 32 31 30 29 28 27 27 26 25 25 25 25 25 26
52 53 54 53 52 51 51 50 49 49 48 46 45 44 42 40 38 37 36 35 35 35 35 36 36 36 36 37 37 37 37 37 36 36 35 34 33 32 31 30 30 30 29 28 28 28 28 28 28
52 51 51 50 50 50 50 49 49 49 48 47 46 45 43 41 39 38 37 36 36 36 36 37 37 37 38 39 39 40 39 39 38 37 37 36 36 35 35 34 33 33 32 32 31 32 32 31 31
48 48 48 48 48 48 49 49 48 48 48 48 47 46 44 42 40 39 38 37 36 36 36 37 38 38 39 40 41 41 41 41 41 40 39 39 39 39 38 37 37 36 36 35 35 36 35 34 34
46 47 47 46 46 46 47 48 47 47 47 47 47 46 45 43 42 40 39 38 37 37 37 38 39 39 40 41 42 43 43 43 43 43 42 42 41 41 40 40 40 39 39 39 39 39 38 38 38
44 45 46 45 45 45 45 46 46 45 46 46 45 45 44 44 42 41 40 39 38 38 38 39 39 40 41 42 44 44 45 45 45 45 44 44 43 43 43 43 43 43 43 43 43 42 42 42 42
43 43 43 43 43 43 44 44 44 43 44 45 44 44 43 43 42 42 41 40 39 39 39 39 40 41 42 43 44 45 46 45 45 45 45 45 46 46 46 46 46 46 46 46 46 46 45 45 45
40 41 41 41 41 42 42 42 42 42 42 43 43 43 42 42 42 41 41 40 40 40 40 40 40 41 42 43 44 45 45 46 46 47 47 48 49 49 49 48 49 49 49 49 49 49 49 49 48
38 38 38 38 39 40 41 41 41 40 40 41 41 41 41 41 41 41 40 40 40 40 40 39 40 41 42 43 44 45 45 46 46 48 49 50 50 51 51 51 52 52 52 52 53 52 52 52 52
35 35 36 36 37 39 38 39 39 39 39 39 39 39 39 40 39 39 39 39 39 39 39 39 39 40 41 42 43 44 45 46 47 48 49 51 52 53 54 54 55 55 56 55 56 56 55 55 54
32 32 31 33 35 37 36 37 38 37 37 37 37 37 37 37 37 37 37 37 37 38 38 38 39 39 40 41 42 43 45 46 48 50 51 53 54 55 57 58 58 59 59 59 58 58 57 57 56
29 30 30 30 32 33 33 34 35 34 35 35 35 35 35 35 35 35 35 35 35 36 36 36 37 38 39 41 42 44 46 48 50 52 53 55 57 58 60 61 61 61 62 62 61 60 59 58 58
28 29 29 28 28 28 30 31 31 31 31 32 32 32 32 32 32 33 33 33 33 34 34 35 36 38 39 41 43 45 47 49 51 54 56 58 60 61 62 63 64 64 64 63 63 62 61 60 59
28 28 28 28 26 25 26 27 27 27 28 29 29 30 30 30 31 31 31 31 32 32 33 34 36 37 39 42 43 45 48 50 53 55 58 60 62 63 65 66 66 65 65 64 63 62 61 60 60
26 27 27 26 25 24 24 24 25 25 26 27 27 28 28 29 29 29 29 29 30 31 32 34 35 37 39 41 43 45 47 50 53 56 58 60 63 64 65 66 66 65 64 62 61 60 59 58 58
24 25 25 25 23 22 23 23 23 24 25 25 26 26 27 27 27 27 28 29 29 30 32 33 35 36 37 38 40 42 44 47 50 53 55 57 59 61 62 62 62 62 60 58 57 55 55 55 54
Wind_Direction
220 220 220 221 222 222 221 220 222 223 222 223 224 226 229 230 232 235 236 238 241 244 247 250 252 255 257 259 260 261 263 264 267 269 271 272 274 276 278 279 280 280 280 280 280 280 280 281 283
221 221 221 221 222 221 221 222 224 225 224 223 225 226 228 231 232 236 238 240 243 246 249 251 254 256 259 262 264 264 264 265 267 269 272 274 276 278 280 281 282 282 282 282 283 284 284 284 284
221 221 222 222 221 220 219 222 225 225 225 224 225 227 229 231 233 236 239 241 244 248 251 254 256 258 259 262 264 266 267 268 269 271 274 276 278 280 282 283 284 286 286 286 286 287 287 288 287
222 222 223 222 220 218 218 221 224 224 224 224 225 227 229 231 233 235 238 241 245 248 252 256 258 259 260 261 264 267 269 271 272 274 276 279 280 282 284 285 287 287 287 287 288 289 290 291 290
222 223 223 222 219 216 217 220 223 223 223 224 224 226 228 230 231 233 235 239 244 249 253 257 260 261 261 261 264 268 270 273 274 276 278 281 282 284 284 285 287 287 287 287 288 289 290 290 291
223 223 224 222 218 215 217 220 222 223 223 223 223 224 226 227 229 231 234 237 242 248 253 257 260 262 263 264 266 269 271 273 275 278 279 281 282 283 284 285 285 286 286 287 288 289 289 290 290
223 223 224 222 217 214 216 219 221 222 222 222 222 223 225 225 227 230 233 237 241 246 251 255 259 261 263 265 267 268 271 273 275 277 279 280 281 282 283 284 285 286 286 287 288 288 289 289 290
222 223 223 220 215 212 214 218 220 221 221 222 221 223 224 226 227 230 233 237 241 245 249 253 257 260 263 265 267 268 270 272 275 276 278 280 281 282 283 284 285 286 287 287 288 288 289 290 291
221 222 221 219 216 212 213 217 219 221 222 223 222 223 226 227 228 231 234 237 241 244 248 251 255 258 262 264 266 268 270 271 273 274 276 278 279 280 281 283 284 285 287 287 288 288 289 290 291
221 221 220 218 215 212 212 217 220 221 223 224 224 224 226 228 229 231 234 237 240 243 247 250 253 257 260 263 265 267 269 270 270 272 273 275 276 278 280 281 282 283 284 286 287 288 289 290 291
221 220 219 218 216 214 213 216 220 222 224 225 226 226 227 229 230 232 234 237 240 243 247 250 253 256 259 261 263 265 266 268 269 270 271 272 274 276 278 279 280 281 282 284 286 288 289 291 292
220 220 219 219 218 216 215 216 219 222 225 226 227 228 228 229 231 233 235 237 240 243 246 248 251 253 256 258 261 262 264 266 267 269 270 271 272 274 275 276 277 278 280 282 284 286 288 290 291
219 219 220 219 219 218 216 217 219 222 226 227 228 230 231 231 233 234 236 238 241 243 245 247 249 251 254 256 259 261 263 264 266 268 269 270 271 272 273 273 274 276 278 280 283 285 287 289 290
219 219 220 219 219 219 218 218 219 222 226 228 230 231 232 233 234 235 237 239 241 243 244 246 248 251 253 256 258 260 263 264 265 267 268 269 270 271 272 271 272 273 275 278 281 283 286 287 289
217 219 220 220 220 220 220 219 219 222 227 230 231 232 233 234 235 235 237 239 241 242 245 247 249 252 254 257 259 260 262 264 265 266 267 268 269 270 270 270 270 271 273 275 278 281 283 285 287
217 218 219 219 220 220 221 220 221 223 227 231 233 234 234 235 236 236 237 239 241 243 245 248 250 253 256 257 259 261 262 264 265 266 267 268 269 269 269 269 268 269 271 274 276 278 281 283 285
215 217 219 219 221 221 222 221 221 224 227 231 234 235 236 236 237 237 238 239 241 243 246 249 252 254 257 258 260 261 263 265 266 267 267 267 267 267 267 267 268 269 271 273 275 277 279 281 283
215 218 219 220 220 222 222 222 222 225 227 230 234 236 237 238 238 238 239 240 242 244 247 250 253 255 257 259 261 262 264 265 266 266 266 265 265 265 266 267 268 269 270 272 273 275 278 280 282
214 216 218 219 219 221 222 222 223 225 227 230 234 237 239 240 240 240 241 242 244 246 248 251 253 256 258 259 261 262 263 263 264 264 265 265 265 265 266 267 268 269 269 270 272 274 276 278 279
212 215 217 218 219 220 221 223 224 225 227 230 233 236 239 241 242 244 244 245 246 248 250 252 255 257 258 259 260 261 262 263 264 264 264 265 265 266 266 267 267 267 268 269 271 273 274 276 278
212 214 216 218 219 221 222 224 225 225 227 229 232 235 238 241 243 246 247 249 250 251 253 255 256 257 258 259 260 261 262 263 264 264 264 264 264 264 265 265 266 267 268 269 270 272 273 275 276
211 213 215 217 219 221 222 226 226 226 227 228 231 234 238 241 244 247 249 252 254 256 257 258 259 259 260 261 261 262 262 263 263 263 263 263 264 265 265 266 266 267 268 269 270 271 272 274 275
210 212 215 217 220 222 223 227 227 228 229 230 232 235 238 242 245 248 250 253 255 257 259 259 260 260 261 262 263 263 263 263 263 264 264 264 264 264 265 265 266 266 268 268 269 270 271 272 273
207 210 213 217 219 223 223 227 229 229 230 232 234 236 239 242 245 248 251 253 255 257 259 260 261 261 262 263 264 264 265 265 265 265 265 265 265 265 265 265 265 266 266 267 268 268 269 270 271
204 206 209 214 218 222 223 228 230 230 232 233 235 237 240 243 245 248 251 253 255 257 258 260 261 262 264 265 266 266 267 267 268 268 267 267 267 266 266 265 265 265 265 265 265 266 267 267 268
203 205 207 213 217 220 221 226 229 230 232 234 235 237 239 241 244 248 250 252 254 257 259 261 263 265 266 268 269 269 270 270 270 270 269 269 268 267 266 266 265 265 265 265 265 265 265 266 266
202 205 208 213 216 218 220 224 227 227 229 231 232 234 237 239 242 246 248 251 254 257 260 263 266 268 270 271 272 273 273 274 274 273 273 272 271 269 268 267 266 265 264 264 264 264 264 264 265
203 205 208 211 214 217 219 221 222 224 225 227 228 231 234 237 241 244 248 251 255 259 262 265 268 271 273 274 276 277 277 278 278 277 277 275 273 271 269 268 267 266 265 264 263 263 263 263 264
204 207 209 211 213 215 216 218 218 219 220 222 225 228 232 236 240 244 249 253 257 261 264 268 271 273 275 277 279 280 281 282 282 281 279 277 275 273 271 269 267 266 265 264 263 262 262 261 262
206 208 209 210 211 213 215 215 214 215 217 219 223 228 232 237 241 246 251 255 260 263 267 270 273 276 278 280 282 284 285 286 286 285 283 280 278 275 273 270 268 266 264 263 262 261 261 260 260
Height
5811 5816 5821 5826 5831 5835 5840 5845 5848 5850 5853 5856 5860 5862 5865 5869 5872 5875 5876 5876 5877 5878 5879 5880 5881 5882 5883 5884 5885 5885 5885 5885 5885 5885 5885 5885 5884 5884 5884 5883 5883 5882 5882 5881 5881 5880 5879 5879 5879
5804 5809 5815 5819 5823 5830 5837 5841 5843 5845 5849 5852 5855 5858 5861 5864 5867 5869 5871 5872 5874 5875 5876 5878 5879 5880 5881 5882 5882 5883 5883 5883 5883 5883 5882 5882 5882 5881 5881 5881 5880 5880 5879 5878 5878 5877 5877 5876 5876
5796 5801 5807 5811 5817 5826 5833 5836 5837 5840 5844 5848 5851 5854 5857 5860 5863 5866 5868 5869 5871 5872 5873 5875 5876 5877 5878 5879 5880 5880 5880 5880 5880 5880 5880 5879 5879 5879 5878 5878 5877 5877 5876 5875 5875 5874 5874 5873 5873
5788 5793 5799 5805 5812 5822 5828 5829 5831 5835 5839 5843 5847 5850 5853 5857 5860 5862 5864 5866 5868 5869 5870 5872 5873 5874 5875 5876 5876 5877 5877 5877 5877 5877 5877 5877 5876 5876 5875 5875 5874 5874 5873 5872 5872 5871 5871 5870 5869
5780 5785 5790 5797 5808 5817 5821 5822 5825 5829 5834 5838 5842 5846 5849 5852 5856 5858 5861 5863 5864 5866 5867 5868 5869 5870 5871 5872 5873 5874 5874 5874 5874 5874 5874 5874 5873 5873 5872 5872 5871 5871 5870 5869 5869 5868 5868 5867 5866
5772 5778 5784 5792 5804 5811 5814 5816 5819 5824 5828 5833 5837 5841 5844 5848 5851 5854 5857 5859 5861 5862 5864 5865 5866 5867 5868 5869 5869 5870 5870 5870 5870 5870 5870 5870 5870 5869 5869 5868 5868 5867 5867 5866 5865 5865 5864 5864 5863
5765 5772 5778 5787 5797 5803 5807 5809 5814 5818 5823 5827 5831 5836 5839 5843 5847 5850 5852 5855 5857 5859 5860 5861 5862 5863 5864 5865 5865 5866 5866 5866 5866 5866 5866 5866 5866 5866 5865 5865 5864 5864 5863 5862 5862 5861 5860 5860 5859
5758 5765 5771 5780 5789 5797 5801 5803 5808 5812 5816 5821 5826 5831 5835 5839 5842 5845 5848 5851 5853 5855 5856 5857 5858 5858 5859 5860 5861 5861 5862 5862 5862 5862 5862 5862 5862 5862 5861 5861 5860 5860 5859 5858 5858 5857 5856 5856 5855
5750 5758 5765 5775 5783 5790 5794 5797 5801 5805 5810 5815 5821 5826 5830 5834 5837 5841 5844 5846 5848 5850 5851 5852 5853 5854 5855 5856 5857 5857 5858 5858 5858 5858 5858 5858 5858 5858 5857 5857 5857 5856 5855 5855 5854 5853 5853 5852 5851
5741 5750 5761 5768 5776 5782 5786 5790 5794 5800 5804 5809 5815 5820 5824 5828 5832 5836 5838 5841 5843 5844 5846 5847 5848 5849 5850 5851 5852 5852 5853 5853 5854 5854 5854 5854 5854 5853 5853 5853 5853 5852 5851 5851 5850 5849 5849 5848 5847
5735 5745 5753 5760 5767 5773 5778 5783 5788 5793 5798 5804 5809 5814 5819 5823 5827 5830 5833 5835 5837 5839 5841 5842 5843 5844 5845 5846 5847 5848 5848 5849 5849 5849 5849 5849 5849 5849 5849 5849 5848 5848 5847 5847 5846 5845 5845 5844 5843
5729 5738 5745 5752 5758 5765 5771 5776 5781 5787 5792 5797 5802 5808 5813 5817 5821 5824 5827 5829 5831 5834 5836 5837 5838 5839 5840 5841 5842 5843 5843 5844 5844 5844 5845 5845 5845 5845 5845 5844 5844 5844 5843 5842 5842 5841 5840 5840 5839
5721 5729 5736 5743 5750 5757 5763 5769 5774 5780 5785 5790 5796 5801 5806 5811 5814 5818 5821 5823 5826 5828 5830 5831 5833 5834 5835 5836 5837 5837 5838 5838 5839 5839 5840 5840 5840 5840 5840 5840 5840 5839 5839 5838 5837 5837 5836 5835 5834
5713 5720 5727 5734 5742 5749 5756 5762 5768 5775 5778 5784 5789 5794 5799 5804 5808 5812 5815 5818 5820 5822 5824 5825 5827 5828 5829 5831 5832 5832 5833 5833 5834 5834 5835 5835 5835 5835 5835 5835 5835 5834 5833 5833 5832 5832 5831 5830 5829
5704 5711 5718 5726 5733 5741 5748 5756 5763 5768 5772 5777 5782 5788 5793 5797 5802 5805 5809 5811 5814 5816 5818 5820 5821 5823 5824 5825 5826 5827 5827 5827 5828 5829 5829 5829 5829 5829 5829 5829 5829 5828 5828 5827 5827 5826 5825 5825 5824
5695 5702 5711 5720 5727 5734 5743 5751 5756 5760 5765 5770 5775 5780 5786 5791 5795 5799 5802 5805 5808 5810 5812 5813 5815 5817 5818 5819 5820 5820 5821 5821 5822 5823 5823 5823 5823 5823 5823 5823 5823 5822 5822 5821 5821 5820 5819 5818 5817
5687 5697 5706 5715 5721 5728 5735 5744 5749 5754 5759 5764 5768 5773 5779 5784 5788 5792 5795 5799 5801 5804 5806 5807 5809 5811 5812 5812 5813 5814 5814 5815 5816 5816 5816 5816 5816 5816 5816 5816 5816 5815 5815 5815 5814 5814 5813 5812 5811
5686 5695 5702 5708 5715 5721 5728 5736 5742 5746 5751 5756 5761 5766 5771 5776 5781 5785 5788 5792 5795 5797 5799 5801 5802 5804 5804 5805 5806 5807 5807 5808 5808 5809 5809 5809 5809 5808 5809 5809 5808 5808 5808 5808 5807 5806 5805 5805 5804
5680 5687 5694 5701 5707 5714 5721 5727 5734 5738 5744 5749 5754 5759 5764 5769 5773 5777 5781 5785 5788 5790 5793 5794 5795 5796 5797 5798 5798 5799 5800 5800 5800 5800 5800 5800 5801 5801 5801 5801 5800 5800 5800 5799 5799 5798 5797 5796 5795
5674 5680 5687 5694 5701 5708 5714 5720 5726 5732 5738 5743 5747 5752 5757 5761 5765 5770 5774 5777 5780 5783 5785 5787 5788 5789 5789 5790 5790 5791 5791 5791 5792 5792 5792 5792 5792 5792 5792 5792 5791 5791 5790 5790 5790 5789 5788 5788 5787
5669 5676 5682 5689 5696 5702 5708 5714 5719 5725 5730 5736 5741 5745 5749 5754 5758 5762 5765 5769 5772 5775 5777 5778 5779 5780 5781 5781 5781 5782 5782 5783 5783 5783 5783 5783 5782 5782 5782 5781 5781 5780 5780 5780 5780 5779 5778 5778 5777
5665 5671 5677 5684 5690 5696 5703 5707 5713 5718 5724 5729 5734 5739 5743 5747 5751 5754 5758 5761 5763 5766 5768 5769 5770 5771 5772 5772 5773 5773 5773 5774 5774 5774 5773 5772 5772 5771 5771 5771 5770 5770 5769 5769 5769 5768 5768 5767 5766
5660 5666 5673 5679 5684 5690 5696 5701 5707 5712 5718 5723 5728 5732 5736 5740 5743 5747 5750 5752 5755 5757 5759 5760 5761 5762 5762 5763 5763 5763 5764 5764 5764 5763 5763 5762 5761 5761 5760 5760 5759 5759 5758 5758 5757 5757 5756 5755 5755
5656 5662 5668 5673 5679 5685 5691 5696 5701 5706 5711 5716 5721 5725 5729 5733 5736 5739 5742 5744 5746 5748 5750 5751 5751 5752 5753 5753 5753 5753 5753 5753 5753 5752 5752 5751 5750 5749 5748 5747 5747 5746 5746 5745 5744 5744 5743 5743 5742
5653 5659 5665 5669 5673 5680 5685 5689 5695 5700 5705 5710 5714 5718 5722 5725 5728 5731 5734 5736 5738 5739 5740 5741 5742 5742 5743 5743 5743 5743 5743 5742 5741 5740 5739 5738 5737 5737 5735 5734 5733 5732 5732 5731 5731 5730 5730 5730 5730
5650 5656 5662 5667 5670 5675 5679 5683 5689 5694 5698 5703 5707 5711 5714 5718 5721 5723 5725 5727 5729 5730 5731 5732 5733 5733 5733 5733 5733 5732 5731 5730 5729 5727 5725 5724 5723 5722 5720 5719 5718 5717 5717 5716 5716 5716 5717 5717 5717
5647 5652 5657 5662 5666 5670 5674 5679 5683 5687 5692 5696 5700 5704 5707 5710 5713 5716 5718 5719 5721 5722 5723 5723 5723 5723 5723 5723 5721 5720 5719 5717 5715 5713 5710 5708 5706 5705 5703 5701 5701 5701 5700 5700 5701 5701 5702 5703 5703
5645 5649 5654 5658 5662 5666 5670 5674 5678 5682 5686 5690 5694 5697 5700 5703 5706 5708 5710 5712 5713 5714 5714 5714 5714 5714 5713 5712 5710 5708 5706 5704 5701 5698 5694 5691 5688 5686 5684 5682 5682 5682 5682 5683 5684 5685 5687 5688 5689
5643 5647 5650 5655 5659 5663 5667 5672 5674 5677 5680 5684 5687 5691 5693 5696 5699 5701 5702 5704 5705 5705 5706 5706 5705 5704 5703 5701 5699 5697 5694 5690 5686 5682 5678 5673 5669 5666 5664 5662 5662 5662 5664 5665 5667 5669 5671 5673 5675
5639 5643 5648 5652 5656 5659 5663 5669 5669 5672 5676 5679 5682 5685 5687 5690 5692 5694 5695 5696 5697 5697 5697 5697 5696 5695 5693 5691 5689 5686 5682 5677 5672 5667 5661 5655 5650 5647 5644 5643 5643 5643 5645 5648 5650 5653 5656 5658 5660